This demonstration page uses our WeatherBlox Daily Observations layout. Learn more.

41.55636, -103.73856

Hourly Observations for March 17, 2019

Temp ( °F °C ) Dew Point ( °F °C ) Humidity (%) Winds ( mph kmh ) Pressure ( in mb ) Visibility ( mi km ) Precip ( " mm )
12:53 am 00:53 Clear 24 -4.4 22 -5.6 91 91 undefined N/A 30.33 1027 10 16.09344 0 0
1:53 am 01:53 Clear 24 -4.4 22 -5.6 91 91 Calm 30.33 1027 10 16.09344 0 0
2:53 am 02:53 Clear 27 -2.8 23 -5 85 85 Calm 30.3 1026 10 16.09344 0 0
3:53 am 03:53 Clear 23 -5 22 -5.6 96 96 Calm 30.3 1026 10 16.09344 0 0
4:53 am 04:53 Clear 23 -5 22 -5.6 96 96 Calm 30.3 1026 10 16.09344 0 0
5:53 am 05:53 Clear 21 -6.1 20 -6.7 96 96 WNW 5 7 30.3 1026 10 16.09344 0 0
6:53 am 06:53 Clear 21 -6.1 21 -6.1 100 100 W 3 6 30.33 1027 10 16.09344 0 0
7:53 am 07:53 Sunny 24 -4.4 23 -5 96 96 NW 7 11 30.33 1027 10 16.09344 0 0
8:53 am 08:53 Sunny 29 -1.7 26 -3.3 89 89 WNW 9 15 30.36 1028 10 16.09344 0 0
9:53 am 09:53 Sunny 33 0.6 29 -1.7 85 85 WNW 12 19 30.36 1028 10 16.09344 0 0
10:53 am 10:53 Sunny 37 2.8 29 -1.7 73 73 WNW 12 19 30.36 1028 10 16.09344 0 0
11:53 am 11:53 Sunny 40 4.4 31 -0.6 70 70 WNW 8 13 30.36 1028 10 16.09344 0 0
12:53 pm 12:53 Sunny 43 6.1 31 -0.6 63 63 WNW 9 15 30.36 1028 10 16.09344 0 0
1:53 pm 13:53 Sunny 47 8.3 32 0 56 56 NW 3 6 30.33 1027 10 16.09344 0 0
2:53 pm 14:53 Sunny 48 8.9 34 1.1 58 58 NW 5 7 30.33 1027 10 16.09344 0 0
3:53 pm 15:53 Sunny 45 7.2 33 0.6 63 63 S 8 13 30.36 1028 10 16.09344 0 0
4:53 pm 16:53 Sunny 45 7.2 33 0.6 63 63 E 10 17 30.36 1028 10 16.09344 0 0
5:53 pm 17:53 Sunny 42 5.6 32 0 68 68 ENE 12 19 30.36 1028 10 16.09344 0 0
6:53 pm 18:53 Sunny 37 2.8 31 -0.6 79 79 ENE 10 17 30.39 1029 10 16.09344 0 0
7:53 pm 19:53 Clear 35 1.7 29 -1.7 78 78 ENE 10 17 30.42 1030 10 16.09344 0 0
8:53 pm 20:53 Clear 33 0.6 29 -1.7 85 85 S 7 11 30.45 1031 10 16.09344 0 0
9:53 pm 21:53 Clear 32 0 29 -1.7 88 88 ENE 6 9 30.42 1030 10 16.09344 0 0
10:53 pm 22:53 Clear 30 -1.1 28 -2.2 92 92 E 7 11 30.45 1031 10 16.09344 0 0
11:53 pm 23:53 Clear 30 -1.1 27 -2.8 88 88 E 6 9 30.45 1031 10 16.09344 0 0

Powered by AerisWeather